Wind_Speed
30 34 31 34 33 32 32 27 26 27 25 22 19 18 17 16 11 8 6 6 8 9 11 10 11 11 9 9 10 10 10 9
25 30 33 35 36 37 31 31 31 30 27 22 21 18 16 13 9 6 4 4 7 9 10 10 9 7 9 10 10 10 11 12
25 29 33 35 38 33 33 33 34 32 28 27 22 21 17 13 8 4 1 3 6 9 10 8 6 7 9 11 13 13 12 12
21 22 30 38 39 45 48 42 42 36 30 27 24 23 17 11 7 4 2 2 6 9 6 4 5 7 9 11 12 12 13 14
14 21 28 29 42 41 20 43 35 36 33 27 25 20 12 10 6 5 3 4 6 7 3 3 5 7 9 12 13 14 14 14
17 18 22 26 29 19 32 32 36 36 36 33 26 17 13 10 8 6 5 7 8 3 2 2 4 7 10 11 12 13 15 18
19 19 26 25 30 34 44 42 47 36 29 27 21 18 14 11 10 8 8 9 6 3 3 3 6 9 10 12 15 15 14 18
9 15 14 22 36 36 33 45 35 33 23 22 18 16 14 13 11 11 12 9 6 5 5 5 7 9 11 14 15 16 17 19
14 15 20 16 21 25 23 37 32 23 22 19 19 15 13 13 14 13 11 10 7 7 6 7 8 9 12 14 16 18 21 23
23 25 29 36 42 33 28 29 25 23 22 18 16 15 15 14 14 12 12 9 9 9 8 8 9 12 16 18 21 25 28 26
25 24 21 23 24 27 24 23 25 23 20 16 15 15 15 15 14 12 12 12 10 11 9 11 13 16 21 24 26 29 29 31
14 17 17 15 16 18 19 21 20 18 17 17 18 16 16 14 14 12 14 13 13 12 13 15 18 21 26 31 34 35 36 35
16 18 18 19 19 20 19 20 20 19 16 18 18 18 17 16 15 14 15 15 17 16 17 19 21 24 28 35 41 42 36 32
17 18 18 17 17 17 18 19 20 18 19 20 18 18 18 20 19 17 19 21 20 20 22 23 26 25 28 33 34 34 39 38
16 16 16 16 16 18 19 21 23 22 20 20 20 18 17 20 24 23 25 26 24 25 26 27 29 30 32 34 27 22 29 36
18 19 18 18 18 19 19 19 19 18 19 19 21 24 23 25 25 25 29 30 31 31 32 32 31 35 39 34 26 33 26 27
19 20 20 20 21 21 20 20 21 22 23 22 24 25 26 28 29 30 32 32 35 35 36 34 36 36 36 31 38 31 29 28
22 22 21 22 22 21 21 20 21 24 27 22 25 27 28 30 31 34 34 34 35 37 36 39 42 37 34 38 31 31 33 36
24 24 23 24 24 22 20 21 23 25 28 30 25 30 29 34 38 37 34 34 37 39 40 35 39 31 36 32 30 31 34 35
27 25 24 24 25 23 24 23 25 26 25 29 27 35 37 32 36 45 35 32 44 44 37 38 32 32 29 40 34 39 39 35
Wind_Direction
209 198 191 198 196 186 185 183 169 171 165 167 165 169 155 140 143 124 101 71 44 28 20 27 45 48 43 40 35 30 31 21
223 219 203 204 190 187 187 179 168 169 163 167 170 165 160 150 150 136 104 65 27 17 13 26 41 38 34 38 38 35 25 356
226 230 209 198 207 181 176 168 171 163 167 177 171 173 166 163 160 160 129 48 6 4 13 28 33 28 32 33 33 29 15 357
236 242 226 220 200 192 176 177 180 159 173 182 174 177 176 175 182 197 208 345 349 351 12 21 19 25 29 25 15 2 356 349
257 241 258 210 234 194 216 181 164 171 178 180 174 181 178 189 205 228 239 302 329 338 351 10 22 7 1 353 353 358 351 350
239 224 210 205 208 203 183 177 169 179 179 166 178 172 196 206 227 235 261 290 308 307 307 0 354 348 354 2 3 358 354 345
218 229 198 209 204 191 182 188 178 174 160 174 178 190 204 216 226 240 261 284 269 256 280 323 355 360 357 356 1 356 345 336
182 191 204 227 202 207 207 180 163 154 166 179 186 197 206 218 230 246 261 259 247 253 261 337 349 349 348 355 356 352 349 339
146 145 151 180 200 168 169 149 156 176 189 187 195 202 211 223 238 248 248 243 243 257 269 317 324 331 335 334 333 331 330 326
125 136 144 141 141 142 171 176 180 190 193 187 194 205 216 232 241 239 236 239 248 251 272 299 315 321 316 319 324 325 322 319
125 135 145 140 147 162 172 181 186 192 189 186 204 213 228 229 232 234 238 239 247 257 283 296 300 299 307 313 318 321 321 322
143 157 168 170 177 185 183 185 189 192 190 198 210 221 227 232 238 236 240 247 255 267 277 283 292 302 309 314 312 314 306 309
168 173 172 175 180 188 187 189 192 195 200 210 222 227 229 236 244 246 250 259 261 267 275 283 291 301 310 308 319 319 315 310
174 178 182 180 186 190 195 199 206 210 214 222 230 238 242 245 252 254 258 261 267 272 278 284 289 299 298 304 312 314 316 311
182 185 187 188 189 200 206 211 216 222 226 231 238 245 257 260 258 258 260 263 267 272 276 280 285 287 291 294 309 304 298 300
197 197 198 199 202 206 213 221 230 240 247 251 254 255 258 264 267 266 265 265 268 269 271 275 278 283 288 285 301 305 307 303
211 211 212 214 219 224 229 233 240 248 250 254 258 263 259 266 271 273 272 270 269 268 269 271 272 273 280 295 308 303 303 298
222 222 223 225 230 232 240 246 249 255 266 259 261 270 270 269 272 274 270 262 272 255 262 263 263 277 287 308 296 297 301 303
224 227 230 233 236 239 245 252 254 254 263 274 259 262 264 263 261 269 274 272 273 286 261 272 278 279 292 294 296 295 293 293
230 230 234 239 242 242 242 246 254 258 265 271 282 261 262 272 283 297 289 281 284 286 281 274 281 285 289 294 290 302 295 298
Height
3115 3116 3120 3126 3130 3134 3138 3143 3148 3154 3158 3162 3164 3167 3169 3169 3170 3171 3172 3173 3174 3175 3175 3174 3174 3174 3174 3174 3172 3172 3171 3171
3115 3117 3119 3124 3126 3131 3137 3143 3146 3152 3156 3162 3165 3167 3169 3170 3171 3172 3173 3173 3174 3174 3174 3173 3174 3175 3174 3173 3173 3171 3170 3169
3113 3116 3117 3119 3125 3129 3137 3141 3145 3147 3155 3161 3164 3166 3167 3169 3170 3172 3173 3173 3174 3173 3172 3173 3174 3174 3173 3173 3171 3171 3171 3169
3114 3116 3116 3116 3119 3121 3127 3135 3140 3142 3154 3159 3163 3164 3168 3169 3171 3172 3172 3172 3173 3172 3172 3173 3173 3173 3173 3173 3172 3172 3170 3168
3109 3111 3110 3110 3118 3118 3119 3130 3137 3144 3151 3158 3160 3165 3167 3169 3170 3172 3171 3171 3171 3172 3172 3173 3173 3173 3173 3172 3171 3169 3169 3167
3111 3113 3114 3117 3120 3122 3127 3133 3136 3144 3148 3157 3162 3164 3166 3169 3170 3171 3170 3171 3171 3172 3172 3172 3172 3171 3171 3170 3168 3168 3165 3162
3108 3111 3110 3112 3116 3122 3124 3125 3133 3145 3152 3158 3162 3163 3166 3168 3170 3169 3170 3170 3170 3170 3171 3171 3170 3169 3168 3168 3165 3164 3164 3162
3108 3109 3112 3114 3116 3120 3124 3131 3141 3148 3154 3157 3160 3163 3165 3168 3168 3169 3168 3169 3169 3169 3170 3169 3169 3169 3167 3165 3162 3163 3161 3160
3110 3111 3114 3116 3120 3127 3130 3139 3145 3148 3152 3156 3160 3163 3165 3166 3167 3167 3167 3167 3167 3168 3167 3167 3166 3166 3164 3162 3162 3161 3158 3158
3110 3113 3119 3122 3127 3131 3137 3142 3145 3150 3153 3156 3159 3162 3164 3164 3165 3165 3165 3165 3165 3166 3164 3164 3162 3163 3162 3161 3159 3158 3156 3154
3118 3122 3127 3128 3131 3135 3139 3144 3148 3150 3153 3155 3158 3160 3162 3162 3163 3163 3163 3163 3163 3163 3161 3160 3160 3160 3159 3157 3155 3153 3151 3148
3124 3127 3129 3131 3135 3138 3141 3145 3148 3149 3152 3155 3157 3158 3160 3160 3160 3161 3161 3160 3160 3159 3158 3158 3156 3155 3154 3151 3150 3149 3146 3143
3125 3128 3131 3133 3136 3138 3141 3144 3147 3149 3151 3153 3155 3156 3157 3158 3158 3158 3157 3157 3157 3156 3154 3154 3153 3152 3149 3145 3140 3137 3138 3136
3126 3129 3131 3133 3135 3138 3141 3143 3145 3147 3149 3151 3152 3153 3155 3155 3154 3154 3155 3153 3153 3153 3152 3150 3147 3147 3145 3142 3141 3134 3123 3125
3126 3128 3131 3132 3134 3137 3140 3142 3144 3145 3147 3148 3150 3151 3150 3150 3151 3149 3150 3149 3148 3148 3147 3145 3142 3141 3140 3138 3135 3133 3129 3117
3126 3128 3130 3131 3134 3136 3138 3140 3142 3143 3144 3145 3146 3146 3147 3146 3146 3144 3144 3144 3141 3142 3141 3139 3137 3134 3130 3131 3130 3126 3123 3121
3125 3126 3128 3130 3131 3133 3135 3137 3139 3139 3140 3141 3141 3140 3141 3141 3140 3139 3138 3137 3135 3135 3133 3132 3129 3127 3123 3122 3118 3116 3115 3114
3121 3123 3125 3127 3128 3130 3131 3133 3134 3134 3133 3135 3135 3135 3136 3135 3134 3132 3129 3127 3126 3123 3123 3122 3119 3118 3119 3115 3112 3109 3106 3102
3118 3120 3122 3123 3124 3125 3127 3129 3130 3130 3130 3128 3129 3130 3130 3128 3125 3123 3118 3119 3118 3116 3112 3112 3111 3110 3110 3108 3104 3102 3098 3096
3114 3116 3118 3119 3119 3120 3121 3122 3123 3124 3125 3124 3124 3124 3122 3110 3118 3114 3114 3114 3110 3108 3106 3103 3101 3102 3100 3099 3096 3093 3089 3086